DW2217 Weather Reports


time (UTC)temp
C
wind
direction
speed
KPH
gust
KPH
rain 1hr
cm
rain 24hr
cm
rain mn
cm
humidity
%
barometer
mb
20260504195057 18 270 14.5 16.1 0.00 0.00 0.00 39 1004.3
20260504194554 19 266 17.7 24.1 0.00 0.00 0.00 38 1004.5
20260504194050 18 274 17.7 27.4 0.00 0.00 0.00 39 1004.8
20260504193547 18 282 14.5 16.1 0.00 0.00 0.00 39 1004.4
20260504193045 18 268 20.9 24.1 0.00 0.00 0.00 41 1004.7
20260504192543 18 310 17.7 24.1 0.00 0.00 0.00 42 1004.8
20260504192041 18 279 12.9 24.1 0.00 0.00 0.00 41 1004.6
20260504191538 18 293 12.9 16.1 0.00 0.00 0.00 41 1004.7
20260504191034 17 278 6.4 19.3 0.00 0.00 0.00 45 1004.7
20260504190531 17 311 3.2 4.8 0.00 0.00 0.00 45 1004.8
20260504190027 16 339 4.8 4.8 0.00 0.00 0.00 46 1004.8
20260504185525 16 270 6.4 14.5 0.00 0.00 0.00 46 1005.0
20260504185021 16 312 4.8 8.0 0.00 0.00 0.00 47 1005.0
20260504184516 16 272 8.0 19.3 0.00 0.00 0.00 45 1005.1
20260504184012 17 266 8.0 14.5 0.00 0.00 0.00 45 1005.1
20260504183509 16 271 9.7 14.5 0.00 0.00 0.00 46 1005.2
20260504183008 16 326 9.7 14.5 0.00 0.00 0.00 47 1005.2
20260504182504 17 323 9.7 16.1 0.00 0.00 0.00 45 1005.1
20260504182001 17 278 4.8 8.0 0.00 0.00 0.00 46 1005.1
20260504181458 16 313 8.0 16.1 0.00 0.00 0.00 48 1005.2
20260504180956 16 286 9.7 14.5 0.00 0.00 0.00 48 1005.3
20260504180455 16 277 8.0 14.5 0.00 0.00 0.00 48 1005.2
20260504175953 16 309 9.7 11.3 0.00 0.00 0.00 47 1005.1
20260504175450 16 295 9.7 14.5 0.00 0.00 0.00 46 1005.2
20260504174947 16 288 8.0 11.3 0.00 0.00 0.00 47 1005.2
20260504174445 16 315 4.8 14.5 0.00 0.00 0.00 45 1005.2
20260504173942 16 273 12.9 24.1 0.00 0.00 0.00 44 1005.0
20260504173438 17 303 12.9 24.1 0.00 0.00 0.00 42 1005.0
20260504172936 17 273 11.3 19.3 0.00 0.00 0.00 43 1005.0
20260504172432 16 283 11.3 16.1 0.00 0.00 0.00 44 1005.2
20260504171929 16 285 17.7 27.4 0.00 0.00 0.00 43 1005.3
20260504171426 16 292 11.3 24.1 0.00 0.00 0.00 43 1005.2
20260504170923 16 253 17.7 19.3 0.00 0.00 0.00 43 1005.1
20260504170419 16 284 16.1 24.1 0.00 0.00 0.00 41 1005.0
20260504160338 17 255 16.1 22.5 0.00 0.00 0.00 40 1004.4
20260504150803 15 236 11.3 16.1 0.00 0.00 0.00 46 1005.2
20260504150259 15 242 8.0 14.5 0.00 0.00 0.00 48 1005.3
20260504141229 12 212 6.4 8.0 0.00 0.00 0.00 57 1006.0
20260504140726 12 231 8.0 11.3 0.00 0.00 0.00 59 1006.5
20260504140221 12 222 9.7 14.5 0.00 0.00 0.00 59 1006.0
20260504130650 10 252 4.8 14.5 0.00 0.00 0.00 66 1006.9
20260504130146 10 219 14.5 16.1 0.00 0.00 0.00 63 1007.0
20260504120110 8 246 11.3 14.5 0.00 0.00 0.00 65 1007.5
20260504110537 7 8 3.2 4.8 0.00 0.00 0.00 63 1007.4
20260504100454 6 269 8.0 11.3 0.00 0.00 0.00 61 1007.2
20260504081847 6 256 9.7 14.5 0.00 0.00 0.00 51 1007.2
20260504081343 5 252 8.0 14.5 0.00 0.00 0.00 53 1007.2
20260504080839 6 262 4.8 4.8 0.00 0.00 0.00 53 1007.2
20260504080337 6 279 4.8 8.0 0.00 0.00 0.00 52 1007.2
20260504070304 5 262 8.0 11.3 0.00 0.00 0.00 55 1007.3
20260504060224 5 258 9.7 11.3 0.00 0.00 0.00 57 1007.1
20260504050652 5 265 8.0 11.3 0.00 0.00 0.00 59 1006.9
20260504050149 5 260 9.7 11.3 0.00 0.00 0.00 59 1006.9
20260504045646 5 251 9.7 11.3 0.00 0.00 0.00 61 1007.2
20260504045146 4 264 8.0 8.0 0.00 0.00 0.00 64 1007.0
20260504044644 4 264 6.4 11.3 0.00 0.00 0.00 64 1007.2
20260504044141 5 264 6.4 8.0 0.00 0.00 0.00 63 1007.1
20260504043638 5 259 6.4 8.0 0.00 0.00 0.00 64 1006.9
20260504043135 5 263 4.8 8.0 0.00 0.00 0.00 63 1006.9
20260504042632 5 256 4.8 8.0 0.00 0.00 0.00 62 1007.1
20260504042129 5 245 4.8 4.8 0.00 0.00 0.00 63 1007.0
20260504041625 5 244 4.8 4.8 0.00 0.00 0.00 62 1006.9
20260504041121 4 245 4.8 4.8 0.00 0.00 0.00 64 1007.0
20260504040619 4 243 3.2 4.8 0.00 0.00 0.00 64 1007.0
20260504040115 5 243 4.8 4.8 0.00 0.00 0.00 64 1007.1
20260504035612 4 243 3.2 4.8 0.00 0.00 0.00 65 1006.9
20260504035108 4 243 3.2 4.8 0.00 0.00 0.00 63 1006.8
20260504034607 4 244 1.6 3.2 0.00 0.00 0.00 67 1006.7
20260504034103 5 243 1.6 3.2 0.00 0.00 0.00 62 1006.8
20260504033601 5 244 3.2 4.8 0.00 0.00 0.00 63 1006.9
20260504033058 5 243 3.2 3.2 0.00 0.00 0.00 61 1006.7
20260504032555 5 244 1.6 4.8 0.00 0.00 0.00 61 1006.8
20260504032052 5 254 4.8 8.0 0.00 0.00 0.00 61 1007.1
20260504031549 5 214 3.2 3.2 0.00 0.00 0.00 62 1006.8
20260504031045 4 222 3.2 4.8 0.00 0.00 0.00 62 1006.7
20260504030542 5 221 3.2 3.2 0.00 0.00 0.00 65 1006.9
20260504030038 4 223 3.2 4.8 0.00 0.00 0.00 65 1006.8
20260504025536 4 294 1.6 3.2 0.00 0.00 0.00 67 1006.7
20260504025032 4 294 0.0 3.2 0.00 0.00 0.00 69 1006.8
20260504024529 3 295 0.0 0.0 0.00 0.00 0.00 72 1006.8
20260504024026 4 295 0.0 0.0 0.00 0.00 0.00 68 1006.8
20260504023523 5 295 0.0 3.2 0.00 0.00 0.00 68 1006.9
20260504023019 4 276 4.8 8.0 0.00 0.00 0.00 66 1006.9
20260504022514 4 296 4.8 8.0 0.00 0.00 0.00 70 1007.0
20260504022011 3 307 4.8 8.0 0.00 0.00 0.00 71 1007.0
20260504021509 3 326 3.2 4.8 0.00 0.00 0.00 81 1007.0
20260504021006 4 327 3.2 3.2 0.00 0.00 0.00 77 1006.8
20260504020503 5 322 3.2 3.2 0.00 0.00 0.00 68 1006.8
20260504015959 5 301 3.2 4.8 0.00 0.00 0.00 67 1006.8
20260504015455 5 284 4.8 4.8 0.00 0.00 0.00 66 1006.7
20260504014951 5 300 4.8 8.0 0.00 0.00 0.00 65 1006.6
20260504014447 5 299 6.4 8.0 0.00 0.00 0.00 63 1006.9
20260504013944 6 319 4.8 8.0 0.00 0.00 0.00 60 1006.7
20260504013443 6 285 9.7 11.3 0.00 0.00 0.00 59 1006.9
20260504012938 5 292 6.4 8.0 0.00 0.00 0.00 64 1006.7
20260504012437 5 274 4.8 8.0 0.00 0.00 0.00 69 1006.7
20260504011934 6 314 3.2 4.8 0.00 0.00 0.00 68 1006.7
20260504011431 6 322 3.2 4.8 0.00 0.00 0.00 64 1006.5
20260504010927 6 295 4.8 8.0 0.00 0.00 0.00 60 1006.6
20260504010423 6 287 4.8 8.0 0.00 0.00 0.00 60 1006.7
20260504005919 6 286 8.0 8.0 0.00 0.00 0.00 59 1006.7
20260504005416 6 280 8.0 11.3 0.00 0.00 0.00 58 1006.5
20260504004913 6 283 8.0 11.3 0.00 0.00 0.00 58 1006.4
20260504004411 6 281 8.0 11.3 0.00 0.00 0.00 58 1006.4
20260504003908 6 280 4.8 8.0 0.00 0.00 0.00 60 1006.2
20260504003404 6 327 3.2 4.8 0.00 0.00 0.00 60 1006.1
20260504002901 6 311 4.8 4.8 0.00 0.00 0.00 59 1006.2
20260504002358 6 294 6.4 8.0 0.00 0.00 0.00 64 1006.2
20260504001855 6 27 3.2 3.2 0.00 0.00 0.00 59 1005.9
20260504001353 6 34 3.2 3.2 0.00 0.00 0.00 58 1005.9
20260504000849 7 330 3.2 4.8 0.00 0.00 0.00 54 1005.9
20260504000346 7 279 4.8 4.8 0.00 0.00 0.00 53 1005.8
20260503235844 7 308 3.2 8.0 0.00 0.00 0.00 52 1005.7
20260503235341 7 289 4.8 4.8 0.00 0.00 0.00 53 1005.8
20260503234838 7 286 6.4 8.0 0.00 0.00 0.00 53 1005.6
20260503234336 7 283 4.8 11.3 0.00 0.00 0.00 52 1005.5
20260503233834 7 288 6.4 11.3 0.00 0.00 0.00 52 1005.5
20260503233330 7 298 8.0 14.5 0.00 0.00 0.00 50 1005.5
20260503232826 8 308 8.0 14.5 0.00 0.00 0.00 50 1005.3
20260503232324 8 328 11.3 11.3 0.00 0.00 0.00 51 1005.5
20260503231821 8 286 6.4 14.5 0.00 0.00 0.00 50 1005.2
20260503231318 8 293 6.4 14.5 0.00 0.00 0.00 48 1005.1
20260503230814 8 282 12.9 16.1 0.00 0.00 0.00 49 1005.2
20260503230311 8 314 12.9 19.3 0.00 0.00 0.00 47 1005.1
20260503225809 8 288 8.0 14.5 0.00 0.00 0.00 49 1005.0
20260503225305 8 290 11.3 16.1 0.00 0.00 0.00 47 1005.1
20260503224801 8 283 22.5 30.6 0.00 0.00 0.00 45 1004.8
20260503224259 8 303 6.4 19.3 0.00 0.00 0.00 46 1004.8
20260503223756 8 281 14.5 22.5 0.00 0.00 0.00 45 1004.7
20260503223254 9 265 16.1 27.4 0.00 0.00 0.00 45 1004.7
20260503222749 9 326 14.5 19.3 0.00 0.00 0.00 45 1004.6
20260503222248 9 281 11.3 22.5 0.00 0.00 0.00 44 1004.4
20260503221746 9 293 16.1 22.5 0.00 0.00 0.00 44 1004.6
20260503221243 9 285 11.3 30.6 0.00 0.00 0.00 46 1004.5
20260503220740 10 276 17.7 27.4 0.00 0.00 0.00 42 1004.4
20260503220237 10 285 14.5 22.5 0.00 0.00 0.00 43 1004.4
20260503215733 10 277 19.3 22.5 0.00 0.00 0.00 43 1004.1
20260503215230 10 300 12.9 19.3 0.00 0.00 0.00 44 1004.1
20260503214729 10 352 11.3 24.1 0.00 0.00 0.00 43 1004.1
20260503214225 10 292 17.7 22.5 0.00 0.00 0.00 43 1004.1
20260503213723 10 268 9.7 11.3 0.00 0.00 0.00 46 1004.1
20260503213220 9 20 3.2 11.3 0.00 0.00 0.00 48 1004.2
20260503212717 9 262 9.7 19.3 0.00 0.00 0.00 44 1004.2
20260503212215 9 314 11.3 19.3 0.00 0.00 0.00 44 1004.0
20260503211712 9 274 14.5 19.3 0.00 0.00 0.00 45 1004.0
20260503211208 9 283 16.1 24.1 0.00 0.00 0.00 46 1003.9
20260503210704 9 286 9.7 14.5 0.00 0.00 0.00 49 1004.0
20260503210201 9 317 11.3 14.5 0.00 0.00 0.00 49 1003.9
20260503205656 9 274 12.9 16.1 0.00 0.00 0.00 48 1003.9
20260503205153 9 280 12.9 19.3 0.00 0.00 0.00 48 1004.0
20260503204649 10 333 11.3 24.1 0.00 0.00 0.00 47 1003.9
20260503204147 10 299 14.5 19.3 0.00 0.00 0.00 47 1003.8
20260503203644 10 262 19.3 22.5 0.00 0.00 0.00 48 1003.8
20260503203142 10 292 9.7 16.1 0.00 0.00 0.00 47 1003.7
20260503202639 10 315 14.5 16.1 0.00 0.00 0.00 49 1003.8
20260503202137 10 285 12.9 16.1 0.00 0.00 0.00 48 1003.9
20260503201634 10 283 8.0 16.1 0.00 0.00 0.00 48 1003.6
20260503201132 10 286 11.3 22.5 0.00 0.00 0.00 47 1003.9
20260503200627 10 296 8.0 11.3 0.00 0.00 0.00 48 1003.7
20260503200124 10 302 17.7 19.3 0.00 0.00 0.00 47 1003.8
20260503195621 10 284 22.5 27.4 0.00 0.00 0.00 47 1003.7